Content
SEND FEEDBACK

Daily
Averages
Monthly
Summary
United States of America

STATEN ISLAND, NEW YORK


Home > North America > United States > New York
Elevation: 46 meters     Latitude: 40 35N     Longitude: 074 09W

WEATHER
 
SELECT A DAY
Number of Records: 189,524;   Date Range: 1/1/95 - 7/22/14
 
SHARE

PRINT THIS DATA

[ ← Previous Day ]
WEATHER ALMANAC - 1 AUGUST, 2013
[ Next Day → ]
[ °F ]   °C
Weather ElementAverageHighLow
Temperature21.7 °C23.9 °C (8:51 am)20.6 °C (11:51 am)
Dewpoint18.9 °C21.1 °C (11:51 pm)17 °C (1:27 am)
Humidity84.6 %96 % (11:51 pm)66 % (8:51 am)
Barometer1013.2 hPa1016.9 hPa (1:27 am)1010.5 hPa (10:51 pm)
Wind Speed8.4 km/h16.7 km/h (9:51 am)
Weather ElementAverage
Visibility11.4 km
Wind DirectionSE (133.8 °)

Weather ElementTotal
Precipitation34.04 mm
Cooling Degree Days3.9 (Base 18.3)
Growing Degree Days12.3 (Base 10)
Averaged from 32 records on 1 August, 2013
WEATHER CONDITIONS BREAKOUT
WIND DIRECTION BREAKOUT
WEATHER BY HOUR - 1 AUGUST, 2013
[ °F ]   °C
Local TimeTemperatureDewpointHumidityBarometerVisibilityWind DirectionWind SpeedGust SpeedPrecipitationEventsConditions
1:27 AM22 °C17 °C73 %1016.9 hPa16.1 kmCalmOvercast
1:51 AM22.2 °C17.2 °C73 %1016.6 hPa16.1 kmSouth (170°)7.4 km/hOvercast
2:51 AM22.2 °C17.2 °C73 %1015.9 hPa16.1 kmSouth (170°)5.6 km/hOvercast
3:51 AM22.2 °C17.2 °C73 %1015.2 hPa16.1 kmSouth (190°)5.6 km/hOvercast
4:51 AM22.2 °C17.2 °C73 %1015.2 hPa16.1 kmSouth (170°)7.4 km/hOvercast
5:51 AM22.2 °C17.8 °C76 %1014.9 hPa16.1 kmSSE (160°)5.6 km/hMostly Cloudy
6:51 AM22.8 °C17.8 °C73 %1014.9 hPa16.1 kmSouth (170°)7.4 km/hMostly Cloudy
7:51 AM23.3 °C17.8 °C71 %1014.9 hPa16.1 kmSSE (160°)11.1 km/hMostly Cloudy
8:51 AM23.9 °C17.2 °C66 %1014.6 hPa16.1 kmSouth (180°)14.8 km/hOvercast
9:51 AM22.8 °C18.9 °C79 %1014.6 hPa14.5 kmSouth (190°)16.7 km/h0 mmRainLight Rain
10:51 AM21.1 °C18.9 °C87 %1014.6 hPa9.7 kmSouth (190°)13 km/h0.51 mmRainLight Rain
11:51 AM20.6 °C18.3 °C87 %1014.6 hPa9.7 kmCalm0.51 mmRainLight Rain
12:13 PM21 °C18 °C83 %1013.9 hPa4.8 kmCalm1.27 mmRainLight Rain
12:44 PM21 °C19 °C88 %1013.9 hPa8 kmSW (220°)7.4 km/h1.78 mmRainLight Rain
12:51 PM20.6 °C18.9 °C90 %1013.9 hPa8 kmCalm1.78 mmRainRain
1:51 PM20.6 °C18.9 °C90 %1013.5 hPa9.7 kmESE (120°)5.6 km/h3.3 mmRainLight Rain
2:51 PM20.6 °C18.3 °C87 %1012.9 hPa8 kmSSE (150°)11.1 km/h1.27 mmRainLight Rain
3:02 PM21 °C19 °C88 %1012.9 hPa4 kmVariable11.1 km/h2.03 mmRainRain
3:10 PM21 °C19 °C88 %1012.5 hPa2.4 kmSE (130°)9.3 km/h3.3 mmRainHeavy Rain
3:25 PM21 °C19 °C88 %1012.5 hPa8 kmSE (130°)9.3 km/h5.33 mmRainLight Rain
3:51 PM20.6 °C18.9 °C90 %1012.2 hPa9.7 kmESE (120°)14.8 km/h5.84 mmRainLight Rain
4:51 PM21.7 °C19.4 °C87 %1011.5 hPa14.5 kmSE (130°)11.1 km/h0.51 mmOvercast
5:51 PM21.7 °C20 °C90 %1011.2 hPa11.3 kmSSE (150°)11.1 km/h0.76 mmRainLight Rain
5:56 PM22 °C20 °C88 %1011.2 hPa11.3 kmVariable11.1 km/h0 mmRainLight Rain
6:51 PM21.7 °C20 °C90 %1011.2 hPa8 kmVariable5.6 km/h0.51 mmRainLight Rain
7:24 PM22 °C21 °C94 %1010.8 hPa4 kmSE (140°)7.4 km/h1.02 mmRainLight Rain
7:51 PM21.7 °C20.6 °C93 %1011.2 hPa4 kmSouth (170°)11.1 km/h1.27 mmRainLight Rain
8:51 PM21.7 °C20.6 °C93 %1010.8 hPa11.3 kmSouth (180°)14.8 km/h0 mmLight Drizzle
9:51 PM21.7 °C20.6 °C93 %1011.2 hPa16.1 kmSSW (200°)11.1 km/h0 mmOvercast
10:51 PM21.7 °C20.6 °C93 %1010.5 hPa16.1 kmSW (220°)9.3 km/hOvercast
11:37 PM22 °C21 °C94 %1010.8 hPa14.5 kmSW (230°)7.4 km/h1.52 mmOvercast
11:51 PM21.7 °C21.1 °C96 %1010.5 hPa14.5 kmWSW (240°)5.6 km/h1.52 mmOvercast
Hourly data recorded from KEWR, located 0 kilometers away from Staten Island, New York







STORIES FROM OUR PARTNERS